Albion, NE

5:25 PM CST on January 20, 2018 (GMT -0600)
Albion Municipal

Weather History for KBVN - March, 2013

Change the Weather History Date:

Monday, March 18, 2013

  Actual Average (KOFK) Record (KOFK)
Temperature  
Mean Temperature 32 °F -  
Max Temperature 39 °F 47 °F 84 °F (2012)
Min Temperature 26 °F 27 °F -12 °F (1923)
Degree Days  
Heating Degree Days 32    
Moisture  
Dew Point 16 °F    
Average Humidity 53    
Maximum Humidity 89    
Minimum Humidity 28    
Precipitation  
Precipitation 0.00 in - - ()
Sea Level Pressure  
Sea Level Pressure 29.88 in    
Wind  
Wind Speed 16 mph (NW)    
Max Wind Speed 30 mph    
Max Gust Speed 41 mph    
Visibility 10 miles    
Events      
Averages and records for this station are not official NWS values.
T = Trace of Precipitation, MM = Missing Value Source: NWS Daily Summary

Daily Weather History Graph

Daily Weather History Graph

Search for Another Location

Airport or City:

Trip Planner

Search our weather history database for the weather conditions in past years. The results will help you decide how hot, cold, wet, or windy it might be!

Date:

Astronomy

Mar. 18, 2013 Rise Set
Actual Time 7:38 AM CDT 7:42 PM CDT
Civil Twilight 7:10 AM CDT 8:10 PM CDT
Nautical Twilight 6:38 AM CDT 8:42 PM CDT
Astronomical Twilight 6:05 AM CDT 9:15 PM CDT
Moon 11:34 AM CDT (3/18) 1:47 AM CDT (3/18)
Length of Visible Light 12h 59m
Length of Day
12h 04m
Waxing Crescent, 41% of the Moon is Illuminated
Mar 18
Waxing Crescent
Mar 19
First Quarter
Mar 27
Full
Apr 2
Last Quarter
Apr 10
New

Hourly Weather History & Observations

Time (CDT) Temp. Windchill Dew Point Humidity Pressure Visibility Wind Dir Wind Speed Gust Speed Precip Events Conditions
12:15 AM 37.0 °F 28.5 °F 34.2 °F 89% 29.70 in 10.0 mi SW 13.8 mph - N/A   Overcast
12:35 AM 37.0 °F 27.7 °F 34.0 °F 89% 29.72 in 10.0 mi SW 16.1 mph 21.9 mph N/A   Overcast
12:55 AM 36.7 °F 28.4 °F 33.8 °F 89% 29.72 in 7.0 mi SW 12.7 mph 21.9 mph N/A   Overcast
1:15 AM 36.9 °F 29.1 °F 34.0 °F 89% 29.72 in 7.0 mi SW 11.5 mph - N/A   Overcast
1:35 AM 36.9 °F 28.7 °F 33.8 °F 89% 29.72 in 7.0 mi WSW 12.7 mph 21.9 mph N/A   Overcast
1:55 AM 37.0 °F 28.5 °F 33.8 °F 88% 29.73 in 7.0 mi WSW 13.8 mph 19.6 mph N/A   Light Drizzle
2:15 AM 37.8 °F 31.8 °F 33.8 °F 86% 29.74 in 10.0 mi WNW 8.1 mph - N/A   Overcast
2:35 AM 38.3 °F 29.3 °F 32.0 °F 78% 29.75 in 10.0 mi NW 16.1 mph 24.2 mph N/A   Overcast
2:55 AM 36.7 °F 27.6 °F 29.3 °F 75% 29.75 in 10.0 mi NW 15.0 mph 24.2 mph N/A   Overcast
3:15 AM 35.1 °F 25.9 °F 28.4 °F 77% 29.76 in 10.0 mi NW 13.8 mph 19.6 mph N/A   Mostly Cloudy
3:35 AM 34.7 °F 27.5 °F 28.8 °F 79% 29.76 in 10.0 mi NW 9.2 mph 16.1 mph N/A   Clear
3:55 AM 34.2 °F 25.2 °F 28.6 °F 80% 29.76 in 10.0 mi WNW 12.7 mph 18.4 mph N/A   Clear
4:15 AM 34.3 °F 24.6 °F 27.0 °F 74% 29.77 in 10.0 mi NW 15.0 mph 24.2 mph N/A   Clear
4:35 AM 33.8 °F 22.2 °F 23.9 °F 67% 29.78 in 10.0 mi NW 20.7 mph 29.9 mph N/A   Clear
4:55 AM 33.1 °F 20.3 °F 21.9 °F 64% 29.79 in 10.0 mi NW 24.2 mph 29.9 mph N/A   Scattered Clouds
5:15 AM 31.8 °F 19.9 °F 18.5 °F 58% 29.79 in 10.0 mi NW 19.6 mph 31.1 mph N/A   Scattered Clouds
5:35 AM 31.1 °F 19.7 °F 19.0 °F 61% 29.79 in 10.0 mi NNW 17.3 mph 25.3 mph N/A   Scattered Clouds
5:55 AM 30.7 °F 19.2 °F 19.2 °F 62% 29.79 in 10.0 mi NW 17.3 mph 25.3 mph N/A   Scattered Clouds
6:15 AM 30.6 °F 17.3 °F 18.1 °F 60% 29.81 in 10.0 mi NNW 23.0 mph 28.8 mph N/A   Scattered Clouds
6:35 AM 29.8 °F 18.0 °F 16.2 °F 57% 29.81 in 10.0 mi NNW 17.3 mph 27.6 mph N/A   Clear
6:55 AM 28.9 °F 16.9 °F 15.4 °F 57% 29.82 in 10.0 mi NNW 17.3 mph 27.6 mph N/A   Scattered Clouds
7:15 AM 28.2 °F 16.3 °F 15.8 °F 60% 29.82 in 10.0 mi NNW 16.1 mph 23.0 mph N/A   Clear
7:35 AM 27.5 °F 16.8 °F 16.2 °F 62% 29.82 in 10.0 mi NW 12.7 mph 18.4 mph N/A   Clear
7:55 AM 26.6 °F 15.7 °F 16.7 °F 66% 29.83 in 10.0 mi NW 12.7 mph - N/A   Clear
8:15 AM 27.5 °F 13.5 °F 15.8 °F 61% 29.84 in 10.0 mi NNW 21.9 mph 28.8 mph N/A   Clear
8:35 AM 27.5 °F 12.9 °F 14.9 °F 59% 29.84 in 10.0 mi NW 24.2 mph 33.4 mph N/A   Scattered Clouds
8:55 AM 28.2 °F 14.2 °F 15.6 °F 59% 29.85 in 10.0 mi NW 23.0 mph 31.1 mph N/A   Mostly Cloudy
9:15 AM 28.4 °F 15.4 °F 15.1 °F 57% 29.86 in 10.0 mi NW 19.6 mph 31.1 mph N/A   Mostly Cloudy
9:35 AM 29.3 °F 17.0 °F 16.0 °F 58% 29.86 in 10.0 mi NW 18.4 mph 31.1 mph N/A   Clear
9:55 AM 30.2 °F 17.8 °F 16.2 °F 56% 29.87 in 10.0 mi NW 19.6 mph 32.2 mph N/A   Clear
10:35 AM 31.5 °F 18.8 °F 14.0 °F 49% 29.88 in 10.0 mi NW 21.9 mph 33.4 mph N/A   Clear
10:55 AM 31.5 °F 17.9 °F 13.6 °F 48% 29.89 in 10.0 mi NW 25.3 mph 35.7 mph N/A   Clear
11:15 AM 32.0 °F 18.6 °F 13.6 °F 47% 29.89 in 10.0 mi NW 25.3 mph 38.0 mph N/A   Clear
11:35 AM 31.3 °F 17.9 °F 11.8 °F 45% 29.91 in 10.0 mi NW 24.2 mph 33.4 mph N/A   Clear
11:55 AM 31.3 °F 18.5 °F 12.0 °F 45% 29.91 in 10.0 mi NW 21.9 mph 35.7 mph N/A   Clear
12:15 PM 32.0 °F 19.2 °F 12.7 °F 45% 29.92 in 10.0 mi NW 23.0 mph 32.2 mph N/A   Clear
12:35 PM 32.9 °F 21.6 °F 13.3 °F 44% 29.92 in 10.0 mi NW 18.4 mph 31.1 mph N/A   Clear
12:55 PM 33.4 °F 20.8 °F 11.8 °F 41% 29.92 in 10.0 mi WNW 24.2 mph 35.7 mph N/A   Clear
1:15 PM 34.2 °F 21.8 °F 12.2 °F 40% 29.92 in 10.0 mi NW 24.2 mph 33.4 mph N/A   Clear
1:35 PM 34.3 °F 22.9 °F 11.5 °F 39% 29.92 in 10.0 mi NW 20.7 mph 41.4 mph N/A   Clear
1:55 PM 35.1 °F 22.7 °F 12.2 °F 39% 29.93 in 10.0 mi NW 25.3 mph 35.7 mph N/A   Clear
2:15 PM 35.8 °F 24.8 °F 12.2 °F 38% 29.93 in 10.0 mi NW 20.7 mph 32.2 mph N/A   Clear
2:35 PM 36.0 °F 23.0 °F 9.7 °F 34% 29.93 in 10.0 mi NW 29.9 mph 38.0 mph N/A   Clear
2:55 PM 35.6 °F 23.0 °F 9.3 °F 34% 29.92 in 10.0 mi NW 27.6 mph 38.0 mph N/A   Clear
3:15 PM 36.1 °F 25.2 °F 9.5 °F 33% 29.92 in 10.0 mi NW 20.7 mph 39.1 mph N/A   Clear
3:35 PM 37.0 °F 25.9 °F 9.7 °F 32% 29.92 in 10.0 mi NNW 23.0 mph 34.5 mph N/A   Clear
3:55 PM 37.6 °F 26.3 °F 9.9 °F 32% 29.92 in 10.0 mi NW 24.2 mph 32.2 mph N/A   Clear
4:15 PM 38.3 °F 27.8 °F 9.9 °F 31% 29.92 in 10.0 mi NW 21.9 mph 32.2 mph N/A   Clear
4:35 PM 38.8 °F 27.8 °F 9.7 °F 30% 29.93 in 10.0 mi NW 25.3 mph 29.9 mph N/A   Clear
4:55 PM 38.3 °F 27.8 °F 8.8 °F 30% 29.93 in 10.0 mi NW 21.9 mph 29.9 mph N/A   Clear
5:15 PM 39.0 °F 29.0 °F 9.0 °F 29% 29.94 in 10.0 mi NW 20.7 mph 32.2 mph N/A   Clear
5:35 PM 38.8 °F 28.8 °F 9.0 °F 29% 29.94 in 10.0 mi NW 20.7 mph 28.8 mph N/A   Clear
5:55 PM 38.7 °F 28.0 °F 7.9 °F 28% 29.94 in 10.0 mi NW 23.0 mph 32.2 mph N/A   Clear
6:15 PM 38.1 °F 28.8 °F 7.3 °F 28% 29.95 in 10.0 mi NW 17.3 mph 34.5 mph N/A   Clear
6:35 PM 37.8 °F 27.7 °F 7.3 °F 28% 29.95 in 10.0 mi NNW 19.6 mph 26.5 mph N/A   Clear
6:55 PM 36.9 °F 26.5 °F 6.8 °F 29% 29.96 in 10.0 mi NW 19.6 mph 23.0 mph N/A   Clear
7:15 PM 35.6 °F 26.6 °F 7.2 °F 31% 29.97 in 10.0 mi NNW 13.8 mph - N/A   Clear
7:35 PM 34.2 °F 25.7 °F 7.7 °F 33% 29.98 in 10.0 mi NNW 11.5 mph - N/A   Clear
7:55 PM 32.5 °F 27.1 °F 8.6 °F 37% 29.99 in 10.0 mi NNW 5.8 mph - N/A   Clear
8:15 PM 31.8 °F 27.3 °F 9.9 °F 40% 29.99 in 10.0 mi North 4.6 mph - N/A   Clear
8:35 PM 31.1 °F 25.4 °F 9.7 °F 41% 29.99 in 10.0 mi North 5.8 mph - N/A   Scattered Clouds
8:55 PM 30.2 °F 23.4 °F 10.0 °F 43% 29.98 in 10.0 mi North 6.9 mph - N/A   Clear
9:15 PM 28.0 °F 24.2 °F 11.5 °F 50% 29.99 in 10.0 mi NNW 3.5 mph - N/A   Clear
9:35 PM 27.3 °F - 11.8 °F 52% 30.00 in 10.0 mi Calm Calm - N/A   Clear
9:55 PM 26.2 °F - 13.1 °F 58% 30.01 in 10.0 mi Calm Calm - N/A   Clear
10:15 PM 26.1 °F - 14.0 °F 60% 30.01 in 10.0 mi Calm Calm - N/A   Clear
10:55 PM 26.6 °F - 14.0 °F 59% 30.02 in 10.0 mi Calm Calm - N/A   Clear
11:15 PM 26.4 °F - 15.3 °F 63% 30.02 in 10.0 mi Calm Calm - N/A   Clear
11:35 PM 27.1 °F - 14.9 °F 60% 30.03 in 10.0 mi Calm Calm - N/A   Clear
11:55 PM 27.5 °F 23.6 °F 14.9 °F 59% 30.03 in 10.0 mi NNW 3.5 mph - N/A   Clear